Here is the Quick Look data you requested

The Data originates at the National Weather Service, and is made available here by the UAlbany Department of Atmospheric and Environmental Sciences

Surface Observations

KNAK 202354Z AUTO 22003KT 10SM FEW060 36/24 A2985 RMK AO2 SLP110 T03560244
 10367 20344 53004 $=
KNAK 210054Z AUTO 00000KT 10SM CLR 34/25 A2985 RMK AO2 SLP109 T03390250 $
KNAK 210054Z AUTO 00000KT 10SM CLR 34/25 A2985 RMK AO2 SLP109 T03390250 $=
KNAK 210154Z AUTO 00000KT 8SM CLR 32/27 A2986 RMK AO2 SLP114 T03220272 $
KNAK 210154Z AUTO 00000KT 8SM CLR 32/27 A2986 RMK AO2 SLP114 T03220272 $=
KNAK 210254Z AUTO 00000KT 8SM CLR 32/28 A2985 RMK AO2 SLP110 T03170283 50000
KNAK 210254Z AUTO 00000KT 8SM CLR 32/28 A2985 RMK AO2 SLP110 T03170283 50000=
KNAK 210354Z AUTO 00000KT 9SM CLR 32/26 A2985 RMK AO2 SLP109 T03170261
KNAK 210354Z AUTO 00000KT 9SM CLR 32/26 A2985 RMK AO2 SLP109 T03170261=
KNAK 210454Z AUTO 00000KT 10SM CLR 32/24 A2985 RMK AO2 SLP111 T03170244
 403670289
KNAK 210454Z AUTO 00000KT 10SM CLR 32/24 A2985 RMK AO2 SLP111 T03170244
 403670289=
KNAK 210554Z AUTO 31004KT 10SM CLR 31/23 A2986 RMK AO2 SLP113 T03110233 10356
 20311 53003
KNAK 210554Z AUTO 31004KT 10SM CLR 31/23 A2986 RMK AO2 SLP113 T03110233 10356
 20311 53003=
KNAK 210654Z AUTO 31004KT 10SM CLR 31/23 A2985 RMK AO2 SLP110 T03110233
KNAK 210654Z AUTO 31004KT 10SM CLR 31/23 A2985 RMK AO2 SLP110 T03110233=
KNAK 210754Z AUTO 31003KT 10SM 30/24 A2984 RMK AO2 SLP106 T03000239 $
KNAK 210754Z AUTO 31003KT 10SM 30/24 A2984 RMK AO2 SLP106 T03000239 $=
KNAK 210854Z AUTO 29003KT 10SM CLR 29/23 A2984 RMK AO2 SLP105 T02940233 $
KNAK 210854Z AUTO 29003KT 10SM CLR 29/23 A2984 RMK AO2 SLP105 T02940233 $=
KNAK 210954Z AUTO 29003KT 10SM CLR 29/23 A2984 RMK AO2 SLP106 T02940228 $
KNAK 210954Z AUTO 29003KT 10SM CLR 29/23 A2984 RMK AO2 SLP106 T02940228 $=
KNAK 211054Z AUTO 30003KT 9SM CLR 30/24 A2985 RMK AO2 SLP111 T03000239 $
KNAK 211054Z AUTO 30003KT 9SM CLR 30/24 A2985 RMK AO2 SLP111 T03000239 $=
KNAK 211154Z AUTO 31004KT 8SM CLR 31/24 A2988 RMK AO2 SLP121 T03110239 10317
 20289 53016 $
KNAK 211154Z AUTO 31004KT 8SM CLR 31/24 A2988 RMK AO2 SLP121 T03110239 10317
 20289 53016 $=
KNAK 211254Z AUTO 31005KT 8SM CLR 33/24 A2989 RMK AO2 SLP124 T03280239 $
KNAK 211254Z AUTO 31005KT 8SM CLR 33/24 A2989 RMK AO2 SLP124 T03280239 $=
KNAK 211354Z AUTO 30007KT 7SM CLR 34/24 A2989 RMK AO2 SLP123 T03390244 $
KNAK 211354Z AUTO 30007KT 7SM CLR 34/24 A2989 RMK AO2 SLP123 T03390244 $=
KNAK 211454Z AUTO 30006KT 7SM CLR 35/24 A2989 RMK AO2 SLP122 T03500244 50001 $
KNAK 211454Z AUTO 30006KT 7SM CLR 35/24 A2989 RMK AO2 SLP122 T03500244 50001 $=
KNAK 211554Z AUTO 34008KT 10SM CLR 36/24 A2988 RMK AO2 SLP119 T03560239 $
KNAK 211554Z AUTO 34008KT 10SM CLR 36/24 A2988 RMK AO2 SLP119 T03560239 $=
KNAK 211654Z AUTO VRB05G15KT 10SM CLR 37/23 A2986 RMK AO2 SLP114 T03670228 $
KNAK 211654Z AUTO VRB05G15KT 10SM CLR 37/23 A2986 RMK AO2 SLP114 T03670228 $=
KNAK 211754Z AUTO 31008KT 10SM SCT060 37/23 A2986 RMK AO2 SLP113 T03670233
 10372 20311 56008 $
KNAK 211754Z AUTO 31008KT 10SM SCT060 37/23 A2986 RMK AO2 SLP113 T03670233
 10372 20311 56008 $=
KNAK 211854Z AUTO 31004KT 10SM FEW070 37/23 A2985 RMK AO2 SLP109 T03720233 $
KNAK 211854Z AUTO 31004KT 10SM FEW070 37/23 A2985 RMK AO2 SLP109 T03720233 $=
KNAK 211954Z AUTO VRB05KT 10SM CLR 37/23 A2983 RMK AO2 SLP103 T03720233 $
KNAK 211954Z AUTO VRB05KT 10SM CLR 37/23 A2983 RMK AO2 SLP103 T03720233 $=
KNAK 212054Z AUTO 29007KT 10SM FEW065 38/22 A2983 RMK AO2 SLP101 T03830222
 56012 $
KNAK 212054Z AUTO 29007KT 10SM FEW065 38/22 A2983 RMK AO2 SLP101 T03830222
 56012 $=
KNAK 212154Z AUTO VRB03KT 10SM CLR 38/23 A2982 RMK AO2 SLP099 T03830233
KNAK 212154Z AUTO VRB03KT 10SM CLR 38/23 A2982 RMK AO2 SLP099 T03830233=
KNAK 212254Z AUTO 20005KT 10SM CLR 37/24 A2982 RMK AO2 SLP100 T03670244
KNAK 212254Z AUTO 20005KT 10SM CLR 37/24 A2982 RMK AO2 SLP100 T03670244=
KNAK 212354Z AUTO 00000KT 9SM CLR 36/24 A2983 RMK AO2 SLP103 T03560244 10383
 20350 53002
KNAK 212354Z AUTO 00000KT 9SM CLR 36/24 A2983 RMK AO2 SLP103 T03560244 10383
 20350 53002=
KNAK 220054Z AUTO 27009G15KT 10SM FEW065 34/23 A2984 RMK AO2 SLP106 T03440228
KNAK 220054Z AUTO 27009G15KT 10SM FEW065 34/23 A2984 RMK AO2 SLP106 T03440228=
KNAK 220154Z AUTO 33009KT 10SM CLR 32/22 A2986 RMK AO2 SLP113 T03220222
KNAK 220154Z AUTO 33009KT 10SM CLR 32/22 A2986 RMK AO2 SLP113 T03220222=
KNAK 220254Z AUTO 03005KT 10SM CLR 31/22 A2987 RMK AO2 SLP117 T03110217 53015
KNAK 220254Z AUTO 03005KT 10SM CLR 31/22 A2987 RMK AO2 SLP117 T03110217 53015=
KNAK 220354Z AUTO 28004KT 10SM CLR 30/20 A2987 RMK AO2 SLP116 T03000200
KNAK 220354Z AUTO 28004KT 10SM CLR 30/20 A2987 RMK AO2 SLP116 T03000200=
KNAK 220454Z AUTO 28003KT 10SM CLR 29/20 A2988 RMK AO2 SLP119 T02890200
 403830289
KNAK 220454Z AUTO 28003KT 10SM CLR 29/20 A2988 RMK AO2 SLP119 T02890200
 403830289=
KNAK 220554Z AUTO 28004KT 10SM 29/21 A2988 RMK AO2 SLP119 T02890206 10356 20289
 $
KNAK 220554Z AUTO 28004KT 10SM 29/21 A2988 RMK AO2 SLP119 T02890206 10356 20289
 $=